Regional Weather Roundup
Issued by NWS Midland/Odessa, TX

Home | Current Version | Previous Version | Text Only | Print | Product List | Glossary On
Versions: 1 2 3 4 5 6 7 8 9 10 11 12 13 14 15 16 17 18 19 20 21 22 23 24 25 26 27 28 29 30 31 32 33 34 35 36 37 38 39 40 41 42 43 44 45 46 47 48 49 50
000
ASUS44 KMAF 300710
RWRMAF
MIDLAND AREA WEATHER ROUNDUP
NATIONAL WEATHER SERVICE MIDLAND TX
200 AM CDT SAT APR 30 2016

...IN SOUTHWEST TEXAS AND SOUTHEAST NEW MEXICO...

CITY           SKY/WX    TMP DP  RH WIND       PRES   REMARKS
ALPINE         CLEAR     55  11  17 W3        29.91S
ANDREWS        FAIR      61  24  24 W15G21    29.75F
ARTESIA        CLEAR     55  27  33 N12       29.83R
BIG SPRING     CLOUDY    61  40  47 NE12      29.80R
CARLSBAD       CLEAR     63  26  24 SW15      29.79S
DRYDEN           N/A     64  18  17 SW3       29.74S
FORT STOCKTON  PTCLDY    57  17  21 SW10      29.79S
GUAD PASS      CLEAR     56  25  30 W30G38    29.86F
HOBBS          CLEAR     54  23  30 W9        29.80S
MARFA          CLEAR     47  14  26 W12       29.89F
MIDLAND AIRPK  CLEAR     64  18  17 W6        29.76R
MIDLAND INTL   CLEAR     65  17  15 VRB7      29.76R
ODESSA         CLEAR     64  16  15 NW17      29.74F
PECOS          CLEAR     56  15  19 W7        29.77S
PRESIDIO       FAIR      59  10  14 MISG      29.80S
SEMINOLE       CLEAR     58  25  27 NW12G23   29.79R
SNYDER           N/A     56  50  81 NE10      29.79R
WINK           CLEAR     59  19  21 NW13      29.76
$$
...OTHER STATIONS IN TEXAS...

CITY           SKY/WX    TMP DP  RH WIND       PRES   REMARKS
ABILENE        MOCLDY    58  52  80 N13       29.75S
AMARILLO       CLOUDY    41  38  89 NW14      29.81S WCI  33
AUSTIN         PTCLDY    75  71  87 CALM      29.62F
BROWNSVILLE    CLOUDY    78  76  93 S10       29.61F FOG
CORPUS CHRISTI CLOUDY    79  75  87 S12       29.60F
DALLAS FTW     PTCLDY    66  62  87 N10       29.62S
DEL RIO        MOCLDY    76  48  37 NW14      29.61F
EL PASO        PTCLDY    62  28  27 N7        29.87S
HOUSTON INT    CLOUDY    76  72  87 S14G25    29.63F
LUBBOCK        CLEAR     48  43  82 CALM      29.78S
SAN ANGELO     CLOUDY    57  41  55 SW6       29.72R
SAN ANTONIO    CLOUDY    71  69  93 CALM      29.62F
WACO           CLEAR     67  64  90 W7        29.64R
WICHITA FALLS  NOT AVBL
$$
...OTHER LOCATIONS IN NEW MEXICO...

CITY           SKY/WX    TMP DP  RH WIND       PRES   REMARKS
ALAMAGORDO     CLOUDY    55  25  30 S5        29.86F
ALBUQUERQUE    CLOUDY    47  36  65 S9        29.89F
CANNON AFB     CLOUDY    44  44 100 NE8       29.85S WCI  39
CLOVIS         CLOUDY    45  39  81 E7        29.87R
HOLLOMAN AFB   PTCLDY    56  26  30 NE8       29.85F
ROSWELL        CLEAR     57  31  37 N8        29.82R
RUIDOSO          N/A     41  32  70 NE3       29.94S
SANTA FE       CLOUDY    37  32  82 W6        29.87F WCI  32
TRUTH OR CONSE MOCLDY    51  29  42 N6        29.88S
TUCUMCARI      CLEAR     38  36  92 E6        29.84F WCI  33
$$




USA.gov is the U.S. government's official web portal to all federal, state and local government web resources and services.